ATLAS 5 CENTAUR DEB, 50214

Orbit data source: Space-Track

ATLAS 5 CENTAUR DEB, 50214 is space debris in GEO originally from a launch on Tue, 07 Dec 2021 UTC launched from the Air Force Eastern Test Range (AFETR). Debris objects in space refer to the collection of defunct objects orbiting the Earth. Examples of debris include non-operational satellites, rocket bodies, and fragments generated from explosions, collisions, or faulty payload assembly.

Not visible in the next 10 days
Identifier
50214, 2021-118D
Orbit
GEO
Country
Flag of USUS
Related business
Manufacturer
NGIS/HARRL3?
Mission
Spacecraft
Bus & Motor
ESPASAT, Unknown motor
Mass
~100 kg wet, 80 kg dry
Launch date (UTC)
2021-12-07 (5 years ago)
Launch vehicle
Unknown
Launch site
Air Force Eastern Test Range (AFETR)
Object type
Payload
Rocket body
Debris
Shape & HBR
BOX, 1.1 m
Radar Cross Section
0.600 m², Large (>1 m²)

Expand to show TLE details & history
Last TLE update: 3 days ago

TLE from 3 days ago
0 ATLAS 5 CENTAUR DEB
1 50214U 21118D   26255.87038412 -.00000314  00000-0  00000-0 0  9997
2 50214   4.5365  76.2668 0012566  63.0319 297.4288  0.99331329 17292
Epoch: 2026-09-12T20:53Z
TLE epoch observation values (Epoch: 2026-09-12T20:53:21.187Z)
Latitude
-0.00002°
Longitude
131.37795°
Altitude
36,027.497 km
Speed
3.067 km/s
True Right ascension
05h 06m 21s
True Declination
0° 00' 00"
Sunlit
Object was in daylight at epoch
Visualization orbit readout
Latitude
Unknown
Longitude
Unknown
Altitude
Unknown
Speed
Unknown
Apparent Right ascension
Unknown
Apparent Declination
Unknown
Sunlit
N/A
Visualization observer readout
Local Sidereal Time
09:02:07
Azimuth
Unknown
Elevation
Unknown
Doppler factor
Unknown
Orbital elements
Apogee altitude
36,106.691 km
Perigee altitude
36,000.052 km
Semi-major axis
42,431.508 km
Eccentricity
0.00126
Inclination
4.5365°
RAAN
76.2668°
Arg. of periapsis
63.0319°
True anomaly
297.3009°
Mean anomaly
297.4288°
Eccentric anomaly
297.36486°
Mean motion
0.24832 °/min
Orbital period
1,449.75 mins
BSTAR
0
Loading maneuver chart data...
Computing Atmospheric mass density...
Loading historical data...
Loading historical data...
Loading historical data...
Loading historical data...
Loading historical data...
Loading historical data...
Loading historical data...
Other satellites on launch #118 in the year 2021 (2021-12-07 UTC)

Documentation

Showing up to 5 results
|